{"data":{"norad_id":65740,"intl_designator":"2025-216G","name":"STARLINK-35130","alt_names":[],"object_type":"PAYLOAD","status":"ACTIVE","operator":null,"country":"US","launch_date":"2025-09-25","launch_site_code":"AFETR","launch_vehicle":null,"mission":null,"orbit_class":"UNKNOWN","rcs_meters":null,"size_class":null,"mass_kg":null,"dimensions":null,"purposes":["comms"],"wikipedia_slug":null,"has_3d_model":false,"image_url":null,"decayed_at":null,"tle_current":{"epoch":"2026-05-24T23:11:44.036160Z","epoch_age_seconds":77629,"freshness":"FRESH","line1":"1 65740U 25216G   26144.96648190  .00010032  00000+0  35028-3 0  9994","line2":"2 65740  53.1589 338.4714 0000951  80.6633 279.4475 15.30208656 38270","mean_motion":15.30208656,"eccentricity":9.51e-5,"inclination_deg":53.1589,"raan_deg":338.4714,"arg_perigee_deg":80.6633,"mean_anomaly_deg":279.4475,"bstar":0.00035028,"rev_number":3827,"period_min":94.10481337651,"perigee_km":474.53747296148,"apogee_km":475.84097560934,"semimajor_km":6853.3262242854,"source":"CELESTRAK","updated_at":"2026-05-25T13:38:20.929785Z"}}}